Погода в Аристове

Россия / Калужская область     54°36′12″N   36°40′14″E
темп.,
°C
ветер,
м/с
пор.,
м/с
влажн.,
%
обл.,
%
осадки,
мм/ч
давл.,
гПа
погр.,
м
20 сентября, пн
пн2000:00+6в81595100 3.9 1013895
03:00+6в71395100 4.3 1012787
06:00+7в81395100 0.2 1011740
09:00+7в81494100 0.6 1011722
12:00+6в81394100 0.1 1012748
15:00+6в91495100 0.2 1011633
18:00+6в81595100 2.4 1011614
21:00+6в71396100 6.8 1012596
21 сентября, вт
вт2100:00+6в61196100 3.3 1012520
03:00+6в51097100 4.3 1011470
06:00+6в5998100 0.3 1011420
09:00+7в5997100 0.8 1011399
12:00+8вюв4797100 0.2 1011475
15:00+9вюв3493100 0.4 1011361
18:00+8всв249799 0.5 1011215
21:00+8всв2499100 0.9 1011198
22 сентября, ср
ср2200:00+7всв2498100 0.4 1011235
03:00+7св2498100 0.5 1011227
06:00+7св2498100 0.0 1011251
09:00+7ссв2396100 0.0 1011290
12:00+8с2291100 0.0 1012470
15:00+8с3391100 0.1 1012495
18:00+7ссв2393100 0.0 1012303
21:00+6св2496100 0.0 1013218
23 сентября, чт
чт2300:00+6ссв239699 0.0 1014179
03:00+6ссв239797 0.0 1013171
06:00+6ссв2496100 0.1 1013207
09:00+7св2497100 0.6 1014255
12:00+8ю368899 0.4 1014487
15:00+9ю3482100 0.8 1014491
18:00+8ююв4684100 0.5 1014263
21:00+7ююв3692100 0.8 1015290
24 сентября, пт
пт2400:00+6ююв3693100 0.3 1014332
03:00+6ююв3692100 0.7 1014343
06:00+6ююв3793100 0.2 1013306
09:00+6ююв4791100 0.3 1012357
12:00+8ю5776100 0.3 1010839
15:00+10ююз686469 0.6 10091396
18:00+8ю5977100 0.1 1009662
21:00+6ю5988100 0.4 1008900